Location: ??????????
(54.8537°N, 38.8755°E)
Time: 22:17:10
(UTC+00:00)

Transit 2A Rocket - Pass Details

Date: 19 September 2024
Orbit: 582 x 908 km, 66.7° (Epoch: 09 October)

Event Time Altitude Azimuth Distance (km) Brightness Sun altitude
Exits shadow 21:41:55 51° 347° (NNW) 1,131 6.0 -33.9°
Drops below altitude 10° 21:47:10 10° 41° (NE) 2,578 8.3 -33.8°
Sets 21:49:44 0° 46° (NE) 3,495 9.1 -33.8°
